When you browse on this site, cookies collect data to enhance your experience and personalize the content and advertising you see.
Visit our Privacy Policy to learn more. By continuing to use the site, you agree to this use of cookies and data.
  • In Hungary
  • List of Countries
  • For 7 days
  • Water Temperature
  • Weather Map
  • News
  • Weather Widgets
  • user-avatar
    Login

    Hourly Weather Elk Grove Village

    Today, 19 November, Tuesday

    Time Temperature Precipitation Wind Pressure Humidity
    00:00 +1°C° 0 mm 1 mps 737 mmHg 89%
    01:00 +1°C° 0 mm 1 mps 736 mmHg 88%
    02:00 +1°C° 0 mm 1 mps 736 mmHg 88%
    03:00 0°C° 0 mm 0 mps 736 mmHg 87%
    04:00 0°C° 0 mm 0 mps 736 mmHg 87%
    05:00 0°C° 0 mm 0 mps 736 mmHg 86%
    06:00 +1°C° 0 mm 1 mps 736 mmHg 92%
    07:00 +2°C° 0 mm 1 mps 737 mmHg 90%
    08:00 +1°C° 0 mm 0 mps 737 mmHg 87%
    09:00 +2°C° 0 mm 0 mps 737 mmHg 85%
    10:00 +2°C° 0 mm 0 mps 737 mmHg 82%
    11:00 +3°C° 0 mm 0 mps 738 mmHg 80%
    12:00 +3°C° 0 mm 0 mps 738 mmHg 78%
    13:00 +3°C° 0 mm 0 mps 738 mmHg 79%
    14:00 +4°C° 0 mm 1 mps 739 mmHg 81%
    15:00 +4°C° 0 mm 1 mps 739 mmHg 82%
    16:00 +4°C° 0 mm 1 mps 740 mmHg 84%
    17:00 +4°C° 0 mm 1 mps 740 mmHg 85%
    18:00 +3°C° 0 mm 1 mps 741 mmHg 87%
    19:00 +3°C° 0 mm 1 mps 741 mmHg 87%
    20:00 +3°C° 0 mm 1 mps 741 mmHg 88%
    21:00 +3°C° 0 mm 1 mps 742 mmHg 88%
    22:00 +3°C° 0 mm 1 mps 742 mmHg 88%
    23:00 +3°C° 0 mm 1 mps 742 mmHg 89%

    Tomorrow, 20 November, Wednesday

    Time Temperature Precipitation Wind Pressure Humidity
    00:00 +2°C° 0 mm 1 mps 743 mmHg 89%
    01:00 +2°C° 0 mm 1 mps 743 mmHg 90%
    02:00 +2°C° 0 mm 1 mps 744 mmHg 91%
    03:00 +2°C° 0 mm 1 mps 744 mmHg 92%
    04:00 +2°C° 0 mm 1 mps 744 mmHg 93%
    05:00 +2°C° 0 mm 1 mps 745 mmHg 94%
    06:00 +2°C° 0 mm 1 mps 745 mmHg 96%
    07:00 +2°C° 0 mm 1 mps 745 mmHg 94%
    08:00 +3°C° 0 mm 1 mps 746 mmHg 93%
    09:00 +3°C° 0 mm 1 mps 746 mmHg 91%
    10:00 +4°C° 0 mm 1 mps 746 mmHg 87%
    11:00 +6°C° 0 mm 1 mps 746 mmHg 82%
    12:00 +7°C° 0 mm 1 mps 746 mmHg 77%
    13:00 +6°C° 0 mm 2 mps 746 mmHg 75%
    14:00 +7°C° 0 mm 2 mps 746 mmHg 73%
    15:00 +7°C° 0 mm 2 mps 745 mmHg 71%
    16:00 +6°C° 0 mm 2 mps 745 mmHg 75%
    17:00 +5°C° 0 mm 3 mps 745 mmHg 78%
    18:00 +4°C° 0 mm 3 mps 745 mmHg 81%
    19:00 +4°C° 0 mm 3 mps 745 mmHg 82%
    20:00 +4°C° 0 mm 3 mps 745 mmHg 82%
    21:00 +4°C° 0 mm 4 mps 745 mmHg 83%
    22:00 +4°C° 0 mm 4 mps 744 mmHg 82%
    23:00 +5°C° 0 mm 4 mps 743 mmHg 82%

    Day after tomorrow, 21 November, Thursday

    Time Temperature Precipitation Wind Pressure Humidity
    00:00 +5°C° 0 mm 5 mps 742 mmHg 82%
    01:00 +5°C° 0.2 mm 5 mps 742 mmHg 81%
    02:00 +4°C° 0.2 mm 6 mps 741 mmHg 80%
    03:00 +5°C° 0.2 mm 6 mps 740 mmHg 80%
    04:00 +5°C° 1.4 mm 7 mps 739 mmHg 83%
    05:00 +5°C° 1.4 mm 7 mps 738 mmHg 87%
    06:00 +6°C° 1.4 mm 8 mps 738 mmHg 91%
    07:00 +6°C° 0.6 mm 8 mps 737 mmHg 90%
    08:00 +6°C° 0.6 mm 7 mps 736 mmHg 90%
    09:00 +8°C° 0.6 mm 7 mps 735 mmHg 90%
    10:00 +9°C° 0.1 mm 8 mps 734 mmHg 90%
    11:00 +10°C° 0.1 mm 8 mps 733 mmHg 89%
    12:00 +11°C° 0.1 mm 8 mps 732 mmHg 89%
    13:00 +11°C° 0.2 mm 9 mps 732 mmHg 85%
    14:00 +11°C° 0.2 mm 9 mps 732 mmHg 82%
    15:00 +11°C° 0.2 mm 9 mps 732 mmHg 79%
    16:00 +9°C° 0 mm 8 mps 734 mmHg 78%
    17:00 +8°C° 0 mm 7 mps 735 mmHg 77%
    18:00 +7°C° 0 mm 6 mps 737 mmHg 77%
    19:00 +7°C° 0 mm 6 mps 738 mmHg 77%
    20:00 +5°C° 0 mm 6 mps 738 mmHg 77%
    21:00 +5°C° 0 mm 5 mps 739 mmHg 77%
    22:00 +3°C° 0 mm 5 mps 739 mmHg 79%
    23:00 +2°C° 0 mm 6 mps 740 mmHg 81%

    22 November, Friday

    Time Temperature Precipitation Wind Pressure Humidity
    00:00 +1°C° 0 mm 6 mps 740 mmHg 83%
    01:00 +1°C° 0 mm 6 mps 741 mmHg 79%
    02:00 0°C° 0 mm 5 mps 741 mmHg 76%
    03:00 0°C° 0 mm 5 mps 742 mmHg 73%
    04:00 -1°C° 0 mm 5 mps 743 mmHg 73%
    05:00 -1°C° 0 mm 4 mps 743 mmHg 73%
    06:00 -2°C° 0 mm 4 mps 744 mmHg 74%
    07:00 -2°C° 0 mm 4 mps 745 mmHg 72%
    08:00 -2°C° 0 mm 4 mps 745 mmHg 70%
    09:00 -1°C° 0 mm 3 mps 745 mmHg 68%
    10:00 0°C° 0 mm 3 mps 745 mmHg 62%
    11:00 +1°C° 0 mm 3 mps 745 mmHg 56%
    12:00 +3°C° 0 mm 2 mps 745 mmHg 51%
    13:00 +3°C° 0 mm 2 mps 745 mmHg 48%
    14:00 +4°C° 0 mm 1 mps 745 mmHg 46%
    15:00 +5°C° 0 mm 1 mps 745 mmHg 44%
    16:00 +4°C° 0 mm 1 mps 745 mmHg 48%
    17:00 +3°C° 0 mm 1 mps 745 mmHg 52%
    18:00 +3°C° 0 mm 1 mps 745 mmHg 56%
    19:00 +2°C° 0 mm 1 mps 745 mmHg 58%
    20:00 +2°C° 0 mm 1 mps 744 mmHg 60%
    21:00 +2°C° 0 mm 1 mps 744 mmHg 61%
    22:00 +2°C° 0 mm 1 mps 744 mmHg 62%
    23:00 +1°C° 0 mm 1 mps 744 mmHg 63%

    23 November, Saturday

    Time Temperature Precipitation Wind Pressure Humidity
    00:00 +1°C° 0 mm 1 mps 743 mmHg 64%
    01:00 +1°C° 0 mm 1 mps 743 mmHg 64%
    02:00 +1°C° 0 mm 1 mps 742 mmHg 64%
    03:00 +1°C° 0 mm 1 mps 742 mmHg 65%
    04:00 +1°C° 0 mm 1 mps 741 mmHg 65%
    05:00 0°C° 0 mm 0 mps 741 mmHg 65%
    06:00 0°C° 0 mm 0 mps 741 mmHg 66%
    07:00 +1°C° 0.1 mm 1 mps 740 mmHg 67%
    08:00 +2°C° 0.1 mm 1 mps 740 mmHg 69%
    09:00 +2°C° 0.1 mm 1 mps 740 mmHg 70%
    10:00 +3°C° 0 mm 1 mps 740 mmHg 67%
    11:00 +2°C° 0 mm 2 mps 739 mmHg 63%
    12:00 +3°C° 0 mm 2 mps 739 mmHg 59%
    13:00 +3°C° 0 mm 2 mps 738 mmHg 58%
    14:00 +3°C° 0 mm 2 mps 738 mmHg 57%
    15:00 +3°C° 0 mm 3 mps 738 mmHg 55%
    16:00 +2°C° 0 mm 3 mps 738 mmHg 57%
    17:00 +1°C° 0 mm 3 mps 738 mmHg 59%
    18:00 0°C° 0 mm 3 mps 738 mmHg 61%
    19:00 0°C° 0 mm 3 mps 738 mmHg 62%
    20:00 0°C° 0 mm 3 mps 738 mmHg 62%
    21:00 -1°C° 0 mm 4 mps 738 mmHg 63%
    22:00 0°C° 0 mm 3 mps 738 mmHg 66%
    23:00 0°C° 0 mm 3 mps 738 mmHg 70%

    24 November, Sunday

    Time Temperature Precipitation Wind Pressure Humidity
    00:00 -1°C° 0 mm 3 mps 738 mmHg 74%
    01:00 -1°C° 0 mm 3 mps 738 mmHg 76%
    02:00 -1°C° 0 mm 3 mps 738 mmHg 79%
    03:00 -1°C° 0 mm 3 mps 738 mmHg 82%
    04:00 -1°C° 0 mm 3 mps 739 mmHg 84%
    05:00 -2°C° 0 mm 3 mps 739 mmHg 85%
    06:00 -2°C° 0 mm 2 mps 739 mmHg 87%
    07:00 -1°C° 0 mm 2 mps 740 mmHg 84%
    08:00 -1°C° 0 mm 2 mps 740 mmHg 81%
    09:00 +1°C° 0 mm 2 mps 741 mmHg 78%
    10:00 +2°C° 0 mm 2 mps 741 mmHg 72%
    11:00 +4°C° 0 mm 2 mps 741 mmHg 66%
    12:00 +5°C° 0 mm 2 mps 741 mmHg 61%
    13:00 +5°C° 0 mm 2 mps 741 mmHg 61%
    14:00 +6°C° 0 mm 2 mps 740 mmHg 62%
    15:00 +6°C° 0 mm 2 mps 740 mmHg 63%
    16:00 +5°C° 0 mm 2 mps 740 mmHg 67%
    17:00 +4°C° 0 mm 2 mps 741 mmHg 72%
    18:00 +3°C° 0 mm 2 mps 741 mmHg 76%
    19:00 +3°C° 0 mm 2 mps 741 mmHg 78%
    20:00 +2°C° 0 mm 2 mps 741 mmHg 79%
    21:00 +2°C° 0 mm 2 mps 741 mmHg 80%
    22:00 +2°C° 0 mm 2 mps 741 mmHg 82%
    23:00 +1°C° 0 mm 3 mps 741 mmHg 84%
    Show more